Location: Christchurch
(43.5330°S, 172.6330°E)
Time: 18:43:34
(UTC+13:00)

Cosmos 1606 - Pass Details

Date: 24 January 2019
Orbit: 506 x 528 km, 82.5° (Epoch: 21 February)

Event Time Altitude Azimuth Distance (km) Brightness Sun altitude
Exits shadow 23:25:37 51° 352° (N) 681 2.9 -19.9°
Maximum altitude 23:26:34 89° 274° (W) 545 2.7 -20.0°
Drops below altitude 10° 23:30:33 10° 172° (S) 1,810 6.1 -20.4°
Sets 23:32:43 0° 171° (S) 2,707 7.1 -20.6°
